Simultaneous Nadir Overpasses (SNOs) Predictions

Prediction of SNOs between NOAA-20 and LANDSAT-8 Satellite Orbit:

Table of predicted SNOs for the next 14.0 days since TLE Epoch: 2/17/2024
Index Date (NOAA-20) Time (NOAA-20) Lat,Lon (NOAA-20) SZA (NOAA-20 ) Date (LANDSAT-8) Time (LANDSAT-8) Lat,Lon (LANDSAT-8) SZA (LANDSAT-8 ) Distance(km) Time Diff (sec)
1 02/17/2024 22:49:40 -70.14, 13.88 97.92 02/17/2024 22:50:13 -70.16, 13.92 97.90 3.39 33
2 02/17/2024 23:40:24 70.01,-178.61 81.93 02/17/2024 23:39:41 70.01,-178.66 81.95 1.87 43
3 02/20/2024 14:15:59 70.51, -38.25 81.54 02/20/2024 14:17:10 70.37, -37.54 81.36 30.63 71
4 02/20/2024 15:06:35 -70.12, 129.69 98.89 02/20/2024 15:06:43 -70.09, 129.69 98.92 2.45 8
5 02/20/2024 15:57:19 69.99, -62.81 80.96 02/20/2024 15:56:10 69.99, -62.80 80.98 0.60 69
6 02/23/2024 06:32:48 70.19, 78.03 80.23 02/23/2024 06:33:41 70.20, 78.09 80.22 2.25 53
7 02/23/2024 07:23:29 -70.05,-114.44 99.93 02/23/2024 07:23:11 -70.08,-114.44 99.91 3.10 18
8 02/23/2024 08:13:59 69.19, 54.13 79.15 02/23/2024 08:12:52 69.20, 52.01 79.27 83.95 67
9 02/25/2024 22:49:41 70.14,-166.12 79.18 02/25/2024 22:50:08 70.13,-166.12 79.17 1.17 27
10 02/25/2024 23:40:22 -70.00, 1.41 100.98 02/25/2024 23:39:38 -70.02, 1.35 100.96 2.87 44
11 02/28/2024 14:15:54 -70.37, 141.98 101.57 02/28/2024 14:17:06 -70.28, 142.34 101.69 16.75 72
12 02/28/2024 15:06:35 70.10, -50.29 78.13 02/28/2024 15:06:34 70.12, -50.25 78.15 2.61 1
13 02/28/2024 15:57:17 -70.01, 117.17 101.98 02/28/2024 15:56:04 -70.01, 117.23 101.97 2.30 73



Historial Predications of SNOs between NOAA-20 and LANDSAT-8
